[Iaude] MPEC E61: 2024 EJ1 [a=2.74,e=0.54,i=33.7,H=20.2]

mpec at cfa.harvard.edu mpec at cfa.harvard.edu
Tue Mar 5 12:37:45 EST 2024


M.P.E.C. 2024-E61                                 Issued 2024 March 5, 17:36 UT

     The Minor Planet Electronic Circulars contain information on unusual
         minor planets, routine data on comets and natural satellites,
         and occasional editorial announcements.  They are published
    on behalf of Division F of the International Astronomical Union by the
          Minor Planet Center, Smithsonian Astrophysical Observatory,
                          Cambridge, MA 02138, U.S.A.
			  
             Prepared using the Tamkin Foundation Computer Network

                              MPC at CFA.HARVARD.EDU
            URL https://www.minorplanetcenter.net/    ISSN 1523-6714

                                    2024 EJ1                                    


Observations:
     K24E01J  C2024 03 02.47493811 23 38.090-06 53 31.53         19.04GVEE061F51
     K24E01J  C2024 03 02.48699111 23 38.662-06 52 18.64         19.08GVEE061F51
     K24E01J  C2024 03 02.51099011 23 39.807-06 49 53.34         19.05GVEE061F51
     K24E01J  C2024 03 02.59712411 23 44.036-06 41 11.32         19.05GVEE061F52
     K24E01J  C2024 03 02.59906711 23 44.119-06 40 59.69         18.74GVEE061F52
     K24E01J*1C2024 03 05.35713111 26 17.081-02 04 09.34         19.00GVEE061703
     K24E01J 1C2024 03 05.35939611 26 17.257-02 03 55.15         18.72GVEE061703
     K24E01J 1C2024 03 05.36166011 26 17.329-02 03 41.40         19.26GVEE061703
     K24E01J 1C2024 03 05.36392311 26 17.423-02 03 28.37         19.17GVEE061703
     K24E01J mC2024 03 05.43931411 26 20.839-01 55 58.04         19.19GVEE061I52
     K24E01J mC2024 03 05.44008411 26 20.868-01 55 52.90         19.19GVEE061I52
     K24E01J mC2024 03 05.44196511 26 20.987-01 55 42.06         19.06GVEE061I52
     K24E01J mC2024 03 05.44368011 26 21.066-01 55 31.87         18.56GVEE061I52
     K24E01J KB2024 03 05.67188 11 26 34.65 -01 32 48.7          18.7 GVEE061O46
     K24E01J KB2024 03 05.67718 11 26 34.87 -01 32 17.3          19.0 GVEE061O46
     K24E01J KB2024 03 05.68193 11 26 35.06 -01 31 48.5          18.4 GVEE061O46

Observer details:
703 Catalina Sky Survey.  Observer K. W. Wierzchos.  Measurers T. Beuden, V.
    F. Carvajal, D. Fay, J. B. Fazekas, D. C. Fuls, A. R. Gibbs, A. D. Grauer,
    H. Groeller, J. K. Hogan, R. A. Kowalski, S. M. Larson, G. J. Leonard, D.
    Rankin, R. L. Seaman, F. C. Shelly, K. W. Wierzchos.  0.68-m Schmidt + 10K
    CCD.
F51 Pan-STARRS 1, Haleakala.  Observers J. Herman, T. Lowe, P. Minguez, A.
    Schultz, I. Smith.  Measurers K. Chambers, T. de Boer, J. Fairlamb, H.
    Gao, M. Huber, C.-C. Lin, E. Magnier, Y. Ramanjooloo, R. Wainscoat, R.
    Weryk.  1.8-m Ritchey-Chretien + CCD.
F52 Pan-STARRS 2, Haleakala.  Observers J. Herman, T. Lowe, P. Minguez, A.
    Schultz, I. Smith.  Measurers K. Chambers, T. de Boer, J. Fairlamb, H.
    Gao, M. Huber, C.-C. Lin, E. Magnier, Y. Ramanjooloo, R. Wainscoat, R.
    Weryk.  1.8-m Ritchey-Chretien + CCD.
I52 Steward Observatory, Mt. Lemmon Station.  Observer J. K. Hogan.  Measurers
    T. Beuden, V. F. Carvajal, D. Fay, J. B. Fazekas, D. C. Fuls, A. R. Gibbs,
    A. D. Grauer, H. Groeller, J. K. Hogan, R. A. Kowalski, S. M. Larson, G.
    J. Leonard, D. Rankin, R. L. Seaman, F. C. Shelly, K. W. Wierzchos.  1.0-m
    prime focus + CCD.
O46 Daocheng Glacier Observatory.  Observer Z. Wang.  0.25-m f/8 reflector +
    CMO.

Orbital elements:
2024 EJ1                                                 Earth MOID = 0.3386 AU
Epoch 2024 Mar. 31.0 TT = JDT 2460400.5                 MPC                     
M  14.75241              (2000.0)            P               Q                  
n   0.21744840     Peri.  322.55623     -0.68455432     -0.72141834             
a   2.7388310      Node   169.14652     +0.72704004     -0.66527177             
e   0.5402414      Incl.   33.74497     -0.05289773     +0.19227338             
P   4.53           H   20.28          G   0.15           U   9                  
Residuals in seconds of arc
240302 F51  0.1+  0.1-    240305 703  0.3+  0.2+    240305 I52  0.3+  0.2-
240302 F51  0.1+  0.1-    240305 703  0.1-  0.5+    240305 O46  0.1+  0.3+
240302 F51  0.1+  0.1-    240305 703  0.2-  0.0     240305 O46  0.1-  0.1+
240302 F52  0.0   0.1+    240305 I52  0.1-  0.3-    240305 O46  0.4-  0.6+
240302 F52  0.2-  0.0     240305 I52  0.2-  0.3+
240305 703  0.8-  0.4-    240305 I52  0.3+  0.1-

Ephemeris:
2024 EJ1                 a,e,i = 2.74, 0.54, 34                  q = 1.2592
Date    TT    R. A. (2000) Decl.     Delta      r    Elong.  Phase     V
2024 02 04    10 45 47.5 -41 22 14   0.4589  1.2662   117.8    43.5    20.8
...
2024 02 19    11 09 24.7 -26 20 31   0.3746  1.2947   139.0    30.0    20.0
...
2024 02 27    11 19 04.4 -14 19 46   0.3533  1.3181   154.7    18.7    19.6
...
2024 03 04    11 25 03.9 -04 19 50   0.3537  1.3391   167.5     9.3    19.3
2024 03 05    11 25 58.3 -02 39 37   0.3553  1.3429   169.6     7.7    19.2
2024 03 06    11 26 51.2 -01 00 09   0.3574  1.3467   171.7     6.1    19.2
...
2024 03 12    11 31 42.7 +08 25 55   0.3786  1.3712   174.9     3.7    19.2
...
2024 03 20    11 37 25.8 +18 47 22   0.4285  1.4074   160.7    13.5    20.0
...
2024 04 04    11 47 38.9 +30 32 28   0.5694  1.4846   140.6    25.3    21.1

A. U. Tomatic                (C) Copyright 2024 MPC           M.P.E.C. 2024-E61





More information about the Iaude mailing list